UAE30Y OMDB-CYYZ

Flight info

Callsign UAE30Y
Flight time N/A
Altitude 34000
Route ANVIX DCT GIDIS G783 RIGIL M628 PEKEM DCT GOLGU M550 RIBOT DCT RAPMA DCT LUGEB/N0485F360 DCT RILAS DCT BADOR DCT PITOK DCT MAKAL DCT LEGAZ/N0482F380 DCT DEKOV DCT KUMER DCT HMM L602 NALAX L46 GETNO DCT IOM DCT MOLAK DCT NETKI DCT RESNO/M085F390 NATA JANJO/N0479F400 N714B YBC DCT POLTY IMEBA9
Aircraft A388/H-SADE2E3FGHIJ3J4J5M1RWXY/LB1D1

Departure

Time 2026-04-26 05:40
Airport Dubai International Airport (OMDB)

Arrival

Time N/A
Airport Toronto Pearson International Airport (CYYZ)
Time Latitude Longitude Altitude Speed Heading
2026-04-26 05:09 25.24969 55.36150 26 ft 0 kts 211°
2026-04-26 05:22 25.24984 55.36160 26 ft 4 kts 211°
2026-04-26 05:22 25.25007 55.36176 27 ft 4 kts 211°
2026-04-26 05:22 25.25026 55.36189 30 ft 4 kts 229°
2026-04-26 05:23 25.25035 55.36213 26 ft 4 kts 276°
2026-04-26 05:23 25.25028 55.36240 31 ft 3 kts 301°
2026-04-26 05:23 25.25014 55.36264 29 ft 4 kts 302°
2026-04-26 05:23 25.25007 55.36277 26 ft 2 kts 302°
2026-04-26 05:27 25.25014 55.36265 26 ft 4 kts 302°
2026-04-26 05:27 25.25034 55.36229 29 ft 7 kts 302°
2026-04-26 05:27 25.25064 55.36175 29 ft 9 kts 302°
2026-04-26 05:28 25.25102 55.36107 29 ft 12 kts 302°
2026-04-26 05:28 25.25148 55.36026 31 ft 13 kts 302°
2026-04-26 05:28 25.25198 55.35939 26 ft 13 kts 302°
2026-04-26 05:28 25.25248 55.35850 29 ft 14 kts 302°
2026-04-26 05:29 25.25303 55.35753 29 ft 15 kts 301°
2026-04-26 05:29 25.25360 55.35650 31 ft 16 kts 301°
2026-04-26 05:29 25.25422 55.35540 29 ft 17 kts 302°
2026-04-26 05:29 25.25484 55.35428 28 ft 18 kts 302°
2026-04-26 05:30 25.25550 55.35312 29 ft 18 kts 302°
2026-04-26 05:30 25.25613 55.35200 31 ft 14 kts 302°
2026-04-26 05:30 25.25676 55.35153 31 ft 10 kts 18°
2026-04-26 05:30 25.25741 55.35196 30 ft 12 kts 32°
2026-04-26 05:31 25.25817 55.35248 29 ft 14 kts 29°
2026-04-26 05:31 25.25902 55.35303 26 ft 15 kts 31°
2026-04-26 05:31 25.25982 55.35376 26 ft 15 kts 58°
2026-04-26 05:31 25.26009 55.35486 27 ft 15 kts 98°
2026-04-26 05:32 25.25969 55.35591 27 ft 15 kts 122°
2026-04-26 05:32 25.25913 55.35691 26 ft 16 kts 122°
2026-04-26 05:32 25.25854 55.35795 27 ft 16 kts 122°
2026-04-26 05:32 25.25794 55.35900 27 ft 16 kts 122°
2026-04-26 05:33 25.25733 55.36008 27 ft 17 kts 122°
2026-04-26 05:33 25.25672 55.36117 27 ft 17 kts 122°
2026-04-26 05:33 25.25610 55.36227 28 ft 17 kts 121°
2026-04-26 05:33 25.25548 55.36339 27 ft 18 kts 122°
2026-04-26 05:34 25.25484 55.36454 27 ft 18 kts 122°
2026-04-26 05:34 25.25419 55.36568 27 ft 18 kts 122°
2026-04-26 05:34 25.25354 55.36684 26 ft 18 kts 122°
2026-04-26 05:34 25.25289 55.36798 27 ft 18 kts 122°
2026-04-26 05:35 25.25224 55.36915 27 ft 18 kts 122°
2026-04-26 05:35 25.25159 55.37031 27 ft 18 kts 122°
2026-04-26 05:35 25.25096 55.37144 28 ft 17 kts 122°
2026-04-26 05:35 25.25032 55.37256 28 ft 17 kts 122°
2026-04-26 05:36 25.24968 55.37370 29 ft 17 kts 122°
2026-04-26 05:36 25.24905 55.37482 28 ft 18 kts 122°
2026-04-26 05:36 25.24840 55.37599 28 ft 18 kts 122°
2026-04-26 05:36 25.24775 55.37715 28 ft 18 kts 122°
2026-04-26 05:37 25.24708 55.37832 27 ft 18 kts 122°
2026-04-26 05:37 25.24680 55.37947 27 ft 14 kts 59°
2026-04-26 05:37 25.24752 55.38012 30 ft 12 kts 12°
2026-04-26 05:37 25.24830 55.37985 30 ft 12 kts 315°
2026-04-26 05:38 25.24841 55.37967 30 ft 0 kts 297°
2026-04-26 05:38 25.24843 55.37963 30 ft 0 kts 301°
2026-04-26 05:38 25.24860 55.37931 30 ft 24 kts 301°
2026-04-26 05:39 25.25068 55.37550 32 ft 93 kts 301°
2026-04-26 05:39 25.25513 55.36750 29 ft 148 kts 302°
2026-04-26 05:39 25.26116 55.35666 35 ft 180 kts 301°
2026-04-26 05:39 25.26781 55.34516 467 ft 176 kts 303°
2026-04-26 05:40 25.27471 55.33437 949 ft 176 kts 305°
2026-04-26 05:40 25.28149 55.32279 1321 ft 182 kts 299°
2026-04-26 05:40 25.28775 55.31054 1729 ft 186 kts 298°
2026-04-26 05:40 25.29309 55.29762 1989 ft 194 kts 278°
2026-04-26 05:41 25.29147 55.28356 2368 ft 187 kts 243°
2026-04-26 05:41 25.28569 55.27147 2512 ft 190 kts 242°
2026-04-26 05:41 25.27972 55.25811 2634 ft 197 kts 245°
2026-04-26 05:41 25.27391 55.24436 2743 ft 199 kts 247°
2026-04-26 05:42 25.26814 55.23056 2882 ft 198 kts 246°
2026-04-26 05:42 25.26236 55.21683 2993 ft 200 kts 248°
2026-04-26 05:42 25.25658 55.20299 3055 ft 203 kts 248°
2026-04-26 05:42 25.25062 55.18887 3102 ft 207 kts 247°
2026-04-26 05:43 25.24278 55.17544 3122 ft 214 kts 226°
2026-04-26 05:43 25.22970 55.16750 3149 ft 228 kts 195°
2026-04-26 05:43 25.21348 55.16720 3267 ft 246 kts 177°
2026-04-26 05:43 25.19621 55.16972 3482 ft 262 kts 165°
2026-04-26 05:44 25.18048 55.17962 3989 ft 264 kts 135°
2026-04-26 05:44 25.16997 55.19615 4505 ft 270 kts 118°
2026-04-26 05:44 25.16148 55.21508 4701 ft 285 kts 115°
2026-04-26 05:44 25.15308 55.23489 5134 ft 290 kts 115°
2026-04-26 05:45 25.14430 55.25473 5652 ft 293 kts 116°
2026-04-26 05:45 25.13506 55.27477 6156 ft 296 kts 117°
2026-04-26 05:45 25.12550 55.29489 6686 ft 298 kts 117°
2026-04-26 05:45 25.11588 55.31489 7146 ft 300 kts 118°
2026-04-26 05:46 25.10612 55.33527 7637 ft 302 kts 115°
2026-04-26 05:46 25.09763 55.35598 8132 ft 303 kts 114°
2026-04-26 05:46 25.08892 55.37730 8618 ft 305 kts 114°
2026-04-26 05:46 25.08030 55.39827 9127 ft 307 kts 114°
2026-04-26 05:47 25.07152 55.41964 9565 ft 309 kts 114°
2026-04-26 05:47 25.06309 55.44093 10085 ft 309 kts 113°
2026-04-26 05:47 25.05464 55.46303 10321 ft 321 kts 113°
2026-04-26 05:47 25.04598 55.48588 10463 ft 335 kts 113°
2026-04-26 05:48 25.03706 55.50928 10604 ft 347 kts 113°
2026-04-26 05:48 25.02759 55.53397 10759 ft 358 kts 113°
2026-04-26 05:48 25.01727 55.55884 11215 ft 360 kts 119°
2026-04-26 05:48 25.00454 55.58245 11695 ft 361 kts 122°
2026-04-26 05:49 24.99171 55.60601 12208 ft 362 kts 122°
2026-04-26 05:49 24.95639 55.64374 13166 ft 361 kts 158°
2026-04-26 05:49 24.93244 55.65077 13602 ft 361 kts 177°
2026-04-26 05:50 24.90736 55.65010 14064 ft 361 kts 185°
2026-04-26 05:50 24.88272 55.64798 14512 ft 363 kts 186°
2026-04-26 05:50 24.85762 55.64580 14969 ft 365 kts 186°
2026-04-26 05:50 24.83228 55.64380 15423 ft 367 kts 185°
2026-04-26 05:51 24.80681 55.64197 15861 ft 370 kts 185°
2026-04-26 05:51 24.78107 55.64022 16309 ft 372 kts 185°
2026-04-26 05:51 24.75520 55.63852 16760 ft 373 kts 185°
2026-04-26 05:51 24.72953 55.63687 17172 ft 375 kts 185°
2026-04-26 05:52 24.70346 55.63518 17571 ft 378 kts 185°
2026-04-26 05:52 24.67762 55.63350 17959 ft 380 kts 185°
2026-04-26 05:52 24.65170 55.63181 18382 ft 381 kts 185°
2026-04-26 05:52 24.62565 55.63011 18744 ft 383 kts 185°
2026-04-26 05:53 24.59905 55.62837 19113 ft 386 kts 185°
2026-04-26 05:53 24.57247 55.62663 19474 ft 388 kts 186°
2026-04-26 05:53 24.54608 55.62178 19791 ft 387 kts 200°
2026-04-26 05:53 24.52217 55.60911 20165 ft 385 kts 216°
2026-04-26 05:54 24.50271 55.58967 20516 ft 384 kts 232°
2026-04-26 05:54 24.48901 55.56498 20834 ft 386 kts 247°
2026-04-26 05:54 24.48211 55.53712 21164 ft 387 kts 260°
2026-04-26 05:54 24.47876 55.50825 21453 ft 390 kts 263°
2026-04-26 05:55 24.47581 55.47884 21804 ft 391 kts 262°
2026-04-26 05:55 24.47264 55.44933 22135 ft 393 kts 262°
2026-04-26 05:55 24.46916 55.41991 22508 ft 392 kts 261°
2026-04-26 05:55 24.46548 55.39039 22768 ft 395 kts 261°
2026-04-26 05:56 24.46166 55.36063 23076 ft 396 kts 261°
2026-04-26 05:56 24.45781 55.33105 23378 ft 398 kts 259°
2026-04-26 05:56 24.45081 55.30292 23668 ft 397 kts 246°
2026-04-26 05:56 24.43739 55.27674 23920 ft 400 kts 236°
2026-04-26 05:57 24.42154 55.25191 24217 ft 401 kts 236°
2026-04-26 05:57 24.40653 55.22637 24485 ft 403 kts 239°
2026-04-26 05:57 24.39284 55.19978 24777 ft 404 kts 242°
2026-04-26 05:57 24.38008 55.17260 25040 ft 406 kts 244°
2026-04-26 05:58 24.36774 55.14502 25312 ft 408 kts 244°
2026-04-26 05:58 24.35726 55.12116 25552 ft 409 kts 244°
2026-04-26 05:58 24.34532 55.09391 25859 ft 410 kts 244°
2026-04-26 05:58 24.33302 55.06580 26125 ft 412 kts 244°
2026-04-26 05:59 24.32062 55.03757 26398 ft 414 kts 244°
2026-04-26 05:59 24.30825 55.00947 26685 ft 416 kts 244°
2026-04-26 05:59 24.29570 54.98100 26984 ft 418 kts 244°
2026-04-26 05:59 24.28323 54.95280 27298 ft 419 kts 244°
2026-04-26 06:00 24.27072 54.92446 27620 ft 420 kts 244°
2026-04-26 06:00 24.25821 54.89613 27931 ft 423 kts 244°
2026-04-26 06:00 24.24556 54.86749 28231 ft 425 kts 244°
2026-04-26 06:00 24.23271 54.83842 28549 ft 427 kts 244°
2026-04-26 06:01 24.21986 54.80939 28903 ft 428 kts 244°
2026-04-26 06:01 24.20723 54.78087 29202 ft 430 kts 244°
2026-04-26 06:01 24.19420 54.75149 29517 ft 432 kts 244°
2026-04-26 06:01 24.18131 54.72241 29870 ft 433 kts 244°
2026-04-26 06:02 24.16842 54.69336 30171 ft 436 kts 244°
2026-04-26 06:02 24.15535 54.66393 30477 ft 438 kts 244°
2026-04-26 06:02 24.14197 54.63382 30769 ft 441 kts 245°
2026-04-26 06:02 24.12853 54.60359 31032 ft 443 kts 245°
2026-04-26 06:03 24.11517 54.57354 31296 ft 446 kts 245°
2026-04-26 06:03 24.10166 54.54318 31552 ft 449 kts 245°
2026-04-26 06:03 24.08813 54.51283 31852 ft 451 kts 246°
2026-04-26 06:03 24.07442 54.48210 32128 ft 453 kts 246°
2026-04-26 06:04 24.06063 54.45117 32393 ft 455 kts 246°
2026-04-26 06:04 24.04675 54.41999 32637 ft 458 kts 246°
2026-04-26 06:04 24.03270 54.38861 32883 ft 460 kts 247°
2026-04-26 06:04 24.01877 54.35748 33148 ft 462 kts 248°
2026-04-26 06:05 24.00479 54.32614 33374 ft 465 kts 248°
2026-04-26 06:05 23.99064 54.29445 33600 ft 467 kts 248°
2026-04-26 06:05 23.97638 54.26260 33828 ft 470 kts 248°
2026-04-26 06:05 23.96209 54.23065 33954 ft 475 kts 249°
2026-04-26 06:06 23.94758 54.19825 33934 ft 481 kts 248°
2026-04-26 06:06 23.91839 54.13342 33935 ft 480 kts 248°
2026-04-26 06:07 23.88913 54.06836 33941 ft 479 kts 248°
2026-04-26 06:07 23.86005 54.00378 33953 ft 480 kts 248°
2026-04-26 06:08 23.83107 53.93946 33935 ft 480 kts 249°
2026-04-26 06:08 23.80183 53.87459 33954 ft 479 kts 248°
2026-04-26 06:09 23.77263 53.81012 33925 ft 477 kts 248°
2026-04-26 06:09 23.74364 53.74607 33920 ft 476 kts 248°
2026-04-26 06:10 23.71442 53.68151 33918 ft 476 kts 248°
2026-04-26 06:10 23.68513 53.61685 33919 ft 477 kts 249°
2026-04-26 06:11 23.65594 53.55263 33927 ft 478 kts 249°
2026-04-26 06:11 23.62670 53.48840 33936 ft 479 kts 249°
2026-04-26 06:12 23.59712 53.42355 33942 ft 480 kts 249°
2026-04-26 06:12 23.56861 53.36104 33972 ft 479 kts 250°
2026-04-26 06:13 23.53943 53.29724 33973 ft 479 kts 249°
2026-04-26 06:13 23.51012 53.23312 33969 ft 478 kts 249°
2026-04-26 06:14 23.48061 53.16860 33955 ft 477 kts 249°
2026-04-26 06:14 23.45107 53.10428 33957 ft 477 kts 249°
2026-04-26 06:15 23.42148 53.04000 33949 ft 477 kts 249°
2026-04-26 06:15 23.39222 52.97646 33954 ft 478 kts 249°
2026-04-26 06:16 23.36267 52.91222 33965 ft 478 kts 249°
2026-04-26 06:16 23.33298 52.84787 33965 ft 478 kts 249°
2026-04-26 06:17 23.30323 52.78335 33967 ft 478 kts 249°
2026-04-26 06:17 23.27367 52.71947 33964 ft 477 kts 249°
2026-04-26 06:18 23.24408 52.65548 33935 ft 477 kts 249°
2026-04-26 06:18 23.21445 52.59156 33952 ft 477 kts 249°
2026-04-26 06:19 23.19094 52.52534 33951 ft 467 kts 262°
2026-04-26 06:19 23.18462 52.45633 33952 ft 458 kts 276°
2026-04-26 06:20 23.18888 52.38842 33977 ft 456 kts 277°
2026-04-26 06:20 23.19300 52.31970 33977 ft 457 kts 277°
2026-04-26 06:21 23.19711 52.25205 33975 ft 456 kts 277°
2026-04-26 06:21 23.20112 52.18409 33972 ft 456 kts 277°
2026-04-26 06:22 23.20513 52.11615 33975 ft 457 kts 277°
2026-04-26 06:22 23.20917 52.04779 33985 ft 456 kts 277°
2026-04-26 06:23 23.21307 51.97968 33978 ft 455 kts 277°
2026-04-26 06:23 23.21708 51.91114 33994 ft 455 kts 277°
2026-04-26 06:24 23.22090 51.84402 33986 ft 454 kts 277°
2026-04-26 06:24 23.22476 51.77638 33984 ft 454 kts 277°
2026-04-26 06:25 23.22859 51.70910 33977 ft 453 kts 277°
2026-04-26 06:25 23.23234 51.64145 33972 ft 452 kts 277°
2026-04-26 06:26 23.23612 51.57397 33967 ft 452 kts 277°
2026-04-26 06:26 23.23989 51.50653 33963 ft 452 kts 276°
2026-04-26 06:27 23.24363 51.43865 33970 ft 453 kts 276°
2026-04-26 06:27 23.24728 51.37080 33978 ft 454 kts 276°
2026-04-26 06:28 23.25090 51.30355 33989 ft 455 kts 276°
2026-04-26 06:28 23.25451 51.23564 34011 ft 454 kts 276°
2026-04-26 06:29 23.25815 51.16791 34011 ft 454 kts 276°
2026-04-26 06:29 23.26167 51.10039 34017 ft 454 kts 276°
2026-04-26 06:30 23.26526 51.03257 34020 ft 454 kts 276°
2026-04-26 06:30 23.26877 50.96447 34017 ft 454 kts 276°
2026-04-26 06:31 23.27224 50.89712 34014 ft 454 kts 276°
2026-04-26 06:31 23.27567 50.82986 34016 ft 453 kts 276°
2026-04-26 06:32 23.27910 50.76232 34011 ft 452 kts 276°
2026-04-26 06:32 23.28251 50.69423 34015 ft 451 kts 276°
2026-04-26 06:33 23.28583 50.62731 34008 ft 451 kts 276°
2026-04-26 06:33 23.28916 50.55978 34008 ft 451 kts 276°
2026-04-26 06:34 23.29243 50.49257 34005 ft 450 kts 276°
2026-04-26 06:34 23.29572 50.42484 34011 ft 450 kts 275°
2026-04-26 06:35 23.29893 50.35785 34005 ft 450 kts 275°
2026-04-26 06:35 23.30211 50.29050 34008 ft 449 kts 275°
2026-04-26 06:36 23.30526 50.22356 34008 ft 449 kts 275°
2026-04-26 06:36 23.30843 50.15647 34010 ft 448 kts 275°
2026-04-26 06:37 23.31153 50.08906 34006 ft 448 kts 275°
2026-04-26 06:37 23.31459 50.02198 34006 ft 448 kts 275°
2026-04-26 06:38 23.31762 49.95533 34015 ft 447 kts 275°
2026-04-26 06:38 23.32064 49.88826 34014 ft 447 kts 275°
2026-04-26 06:39 23.32360 49.82165 34013 ft 447 kts 275°
2026-04-26 06:39 23.32653 49.75508 34006 ft 446 kts 275°
2026-04-26 06:40 23.32944 49.68848 34003 ft 446 kts 275°
2026-04-26 06:40 23.33236 49.62136 34003 ft 446 kts 275°
2026-04-26 06:41 23.33521 49.55438 34005 ft 446 kts 275°
2026-04-26 06:41 23.33806 49.48736 34005 ft 446 kts 275°
2026-04-26 06:42 23.34087 49.42076 34017 ft 446 kts 275°
2026-04-26 06:42 23.34365 49.35401 34047 ft 446 kts 275°
2026-04-26 06:43 23.34638 49.28738 34058 ft 446 kts 275°
2026-04-26 06:43 23.34910 49.22014 34061 ft 447 kts 274°
2026-04-26 06:44 23.35181 49.15278 34065 ft 447 kts 275°
2026-04-26 06:44 23.35448 49.08602 34067 ft 447 kts 275°
2026-04-26 06:45 23.35713 49.01897 34066 ft 447 kts 274°
2026-04-26 06:45 23.35975 48.95184 34067 ft 446 kts 274°
2026-04-26 06:46 23.36233 48.88496 34078 ft 446 kts 274°
2026-04-26 06:46 23.36486 48.81832 34072 ft 445 kts 274°
2026-04-26 06:47 23.36737 48.75157 34071 ft 445 kts 274°
2026-04-26 06:47 23.36989 48.68457 34068 ft 445 kts 274°
2026-04-26 06:48 23.37234 48.61793 34084 ft 444 kts 274°
2026-04-26 06:48 23.37476 48.55173 34085 ft 444 kts 274°
2026-04-26 06:49 23.37713 48.48554 34079 ft 444 kts 274°
2026-04-26 06:49 23.38064 48.41919 34076 ft 442 kts 280°
2026-04-26 06:50 23.39970 48.35648 34076 ft 442 kts 297°
2026-04-26 06:50 23.43737 48.30349 34076 ft 449 kts 314°
2026-04-26 06:51 23.48767 48.26381 34083 ft 454 kts 321°
2026-04-26 06:51 23.56581 48.20618 34086 ft 455 kts 321°
2026-04-26 06:52 23.61778 48.16791 34097 ft 455 kts 321°
2026-04-26 06:52 23.67011 48.12941 34098 ft 455 kts 321°
2026-04-26 06:53 23.72171 48.09143 34098 ft 455 kts 321°
2026-04-26 06:53 23.77386 48.05300 34098 ft 455 kts 321°
2026-04-26 06:54 23.82598 48.01457 34100 ft 455 kts 321°
2026-04-26 06:54 23.87780 47.97633 34102 ft 455 kts 321°
2026-04-26 06:55 23.92951 47.93809 34103 ft 455 kts 321°
2026-04-26 06:55 23.98120 47.89986 34102 ft 455 kts 320°
2026-04-26 06:56 24.03274 47.86169 34100 ft 455 kts 320°
2026-04-26 06:56 24.08509 47.82290 34103 ft 455 kts 320°
2026-04-26 06:57 24.13661 47.78466 34101 ft 455 kts 320°
2026-04-26 06:57 24.18851 47.74610 34099 ft 455 kts 320°
2026-04-26 06:58 24.24046 47.70746 34099 ft 455 kts 320°
2026-04-26 06:58 24.29234 47.66887 34098 ft 455 kts 320°
2026-04-26 06:59 24.34453 47.62999 34085 ft 455 kts 320°
2026-04-26 06:59 24.39635 47.59139 34097 ft 454 kts 320°
2026-04-26 07:00 24.44813 47.55271 34100 ft 455 kts 320°
2026-04-26 07:00 24.50021 47.51379 34099 ft 455 kts 320°
2026-04-26 07:01 24.55209 47.47496 34100 ft 455 kts 320°
2026-04-26 07:01 24.60376 47.43625 34100 ft 455 kts 320°